TimeEDT,TemperatureF,Dew PointF,Humidity,Sea Level PressureIn,VisibilityMPH,Wind Direction,Wind SpeedMPH,Gust SpeedMPH,PrecipitationIn,Events,Conditions,WindDirDegrees,DateUTC
12:15 AM,69.8,64.4,83,29.96,10.0,Calm,Calm,-,N/A,,Clear,0,2013-03-19 04:15:00
12:35 AM,68.0,66.2,94,29.95,10.0,Calm,Calm,-,N/A,,Clear,0,2013-03-19 04:35:00
12:55 AM,66.2,66.2,100,29.95,10.0,Calm,Calm,-,N/A,,Clear,0,2013-03-19 04:55:00
1:15 AM,66.2,-9999,N/A,29.95,10.0,Calm,Calm,-,N/A,,Clear,0,2013-03-19 05:15:00
1:35 AM,64.4,-9999,N/A,29.95,10.0,Calm,Calm,-,N/A,,Clear,0,2013-03-19 05:35:00
1:55 AM,66.2,-9999,N/A,29.95,7.0,North,3.5,-,N/A,,Clear,360,2013-03-19 05:55:00
2:15 AM,64.4,-9999,N/A,29.94,7.0,Calm,Calm,-,N/A,,Clear,0,2013-03-19 06:15:00
2:35 AM,66.2,-9999,N/A,29.95,7.0,Calm,Calm,-,N/A,,Clear,0,2013-03-19 06:35:00
2:55 AM,66.2,-9999,N/A,29.97,7.0,North,3.5,-,N/A,,Clear,360,2013-03-19 06:55:00
3:15 AM,66.2,-9999,N/A,29.97,7.0,North,3.5,-,N/A,,Clear,10,2013-03-19 07:15:00
3:55 AM,64.4,-9999,N/A,29.97,5.0,North,4.6,-,N/A,,Haze,10,2013-03-19 07:55:00
4:15 AM,64.4,-9999,N/A,29.96,5.0,NE,3.5,-,N/A,,Haze,40,2013-03-19 08:15:00
4:35 AM,66.2,-9999,N/A,29.97,5.0,NNE,4.6,-,N/A,,Haze,20,2013-03-19 08:35:00
4:55 AM,66.2,-9999,N/A,29.97,7.0,Calm,Calm,-,N/A,,Overcast,0,2013-03-19 08:55:00
5:15 AM,66.2,-9999,N/A,29.94,7.0,ESE,5.8,-,N/A,,Mostly Cloudy,120,2013-03-19 09:15:00
5:35 AM,66.2,-9999,N/A,29.96,5.0,Calm,Calm,-,N/A,,Haze,0,2013-03-19 09:35:00
5:55 AM,64.4,-9999,N/A,29.96,4.0,Calm,Calm,-,N/A,,Haze,0,2013-03-19 09:55:00
6:15 AM,64.4,-9999,N/A,29.96,2.5,SE,3.5,-,N/A,,Clear,130,2013-03-19 10:15:00
6:35 AM,64.4,-9999,N/A,29.98,2.0,Calm,Calm,-,N/A,,Clear,0,2013-03-19 10:35:00
6:55 AM,64.4,-9999,N/A,29.99,0.8,SSE,3.5,-,N/A,,Mist,160,2013-03-19 10:55:00
7:15 AM,64.4,-9999,N/A,30.02,5.0,Calm,Calm,-,N/A,,Haze,0,2013-03-19 11:15:00
7:35 AM,62.6,-9999,N/A,30.01,2.0,Calm,Calm,-,N/A,,Overcast,0,2013-03-19 11:35:00
7:55 AM,64.4,-9999,N/A,30.02,2.5,Calm,Calm,-,N/A,,Overcast,0,2013-03-19 11:55:00
8:15 AM,64.4,-9999,N/A,30.02,3.0,Calm,Calm,-,N/A,,Overcast,0,2013-03-19 12:15:00
8:35 AM,64.4,-9999,N/A,30.03,3.0,Calm,Calm,-,N/A,,Mostly Cloudy,0,2013-03-19 12:35:00
8:55 AM,66.2,-9999,N/A,30.02,3.0,East,4.6,-,N/A,,Scattered Clouds,80,2013-03-19 12:55:00
9:15 AM,66.2,-9999,N/A,30.04,4.0,NE,3.5,-,N/A,,Haze,40,2013-03-19 13:15:00
9:35 AM,69.8,-9999,N/A,30.04,7.0,East,3.5,-,N/A,,Clear,80,2013-03-19 13:35:00
9:55 AM,71.6,-9999,N/A,30.04,10.0,East,6.9,-,N/A,,Scattered Clouds,80,2013-03-19 13:55:00
10:15 AM,73.4,64.4,73,30.04,10.0,ENE,4.6,-,N/A,,Scattered Clouds,60,2013-03-19 14:15:00
10:35 AM,75.2,64.4,69,30.04,10.0,North,3.5,-,N/A,,Scattered Clouds,360,2013-03-19 14:35:00
10:55 AM,75.2,62.6,65,30.02,10.0,Calm,Calm,-,N/A,,Scattered Clouds,0,2013-03-19 14:55:00
11:15 AM,77.0,60.8,57,30.02,10.0,Calm,Calm,-,N/A,,Clear,0,2013-03-19 15:15:00
11:35 AM,78.8,60.8,54,30.03,10.0,Calm,Calm,-,N/A,,Clear,0,2013-03-19 15:35:00
11:55 AM,78.8,60.8,54,30.04,10.0,Calm,Calm,-,N/A,,Clear,0,2013-03-19 15:55:00
12:15 PM,80.6,60.8,51,30.04,10.0,Calm,Calm,-,N/A,,Clear,0,2013-03-19 16:15:00
12:35 PM,80.6,60.8,51,30.04,10.0,East,5.8,-,N/A,,Mostly Cloudy,90,2013-03-19 16:35:00
12:55 PM,80.6,59.0,48,30.02,10.0,Calm,Calm,-,N/A,,Mostly Cloudy,0,2013-03-19 16:55:00
1:15 PM,82.4,59.0,45,30.01,10.0,Calm,Calm,-,N/A,,Scattered Clouds,0,2013-03-19 17:15:00
1:35 PM,82.4,59.0,45,30.00,10.0,Calm,Calm,-,N/A,,Clear,0,2013-03-19 17:35:00
1:55 PM,84.2,59.0,42,29.99,10.0,Calm,Calm,-,N/A,,Clear,0,2013-03-19 17:55:00
2:15 PM,82.4,59.0,45,29.98,10.0,East,3.5,-,N/A,,Clear,80,2013-03-19 18:15:00
2:35 PM,86.0,55.4,35,29.96,10.0,Calm,Calm,-,N/A,,Clear,0,2013-03-19 18:35:00
2:55 PM,86.0,57.2,37,29.95,10.0,WNW,4.6,-,N/A,,Clear,290,2013-03-19 18:55:00
3:15 PM,86.0,57.2,37,29.95,10.0,Calm,Calm,-,N/A,,Clear,0,2013-03-19 19:15:00
3:35 PM,87.8,57.2,35,29.94,10.0,Calm,Calm,-,N/A,,Clear,0,2013-03-19 19:35:00
3:55 PM,87.8,57.2,35,29.93,10.0,WSW,4.6,-,N/A,,Clear,240,2013-03-19 19:55:00
4:15 PM,87.8,57.2,35,29.93,10.0,West,3.5,-,N/A,,Scattered Clouds,280,2013-03-19 20:15:00
4:35 PM,86.0,57.2,37,29.93,10.0,North,3.5,-,N/A,,Mostly Cloudy,360,2013-03-19 20:35:00
4:55 PM,86.0,57.2,37,29.93,10.0,NNW,4.6,-,N/A,,Mostly Cloudy,330,2013-03-19 20:55:00
5:15 PM,86.0,57.2,37,29.93,10.0,Calm,Calm,-,N/A,,Mostly Cloudy,0,2013-03-19 21:15:00
5:35 PM,86.0,57.2,37,29.93,10.0,West,12.7,18.4,N/A,,Mostly Cloudy,260,2013-03-19 21:35:00
5:55 PM,86.0,55.4,35,29.94,10.0,WNW,10.4,16.1,N/A,,Scattered Clouds,290,2013-03-19 21:55:00
6:15 PM,84.2,60.8,45,29.94,10.0,WNW,12.7,16.1,N/A,,Scattered Clouds,300,2013-03-19 22:15:00
6:35 PM,82.4,60.8,48,29.94,10.0,WNW,12.7,17.3,N/A,,Clear,290,2013-03-19 22:35:00
6:55 PM,80.6,60.8,51,29.95,10.0,WNW,10.4,17.3,N/A,,Clear,290,2013-03-19 22:55:00
7:15 PM,78.8,60.8,54,29.96,10.0,WNW,8.1,-,N/A,,Clear,290,2013-03-19 23:15:00
7:35 PM,77.0,60.8,57,29.96,10.0,WNW,6.9,-,N/A,,Clear,290,2013-03-19 23:35:00
7:55 PM,77.0,60.8,57,29.97,10.0,WNW,4.6,-,N/A,,Clear,290,2013-03-19 23:55:00
8:15 PM,75.2,62.6,65,29.97,10.0,NW,5.8,-,N/A,,Clear,310,2013-03-20 00:15:00
8:35 PM,75.2,62.6,65,29.97,10.0,WNW,4.6,-,N/A,,Clear,300,2013-03-20 00:35:00
8:55 PM,73.4,62.6,69,29.98,10.0,WNW,5.8,-,N/A,,Clear,300,2013-03-20 00:55:00
9:15 PM,73.4,62.6,69,29.98,10.0,North,3.5,-,N/A,,Clear,350,2013-03-20 01:15:00
9:35 PM,71.6,62.6,73,29.99,10.0,NW,4.6,-,N/A,,Scattered Clouds,320,2013-03-20 01:35:00
9:55 PM,71.6,62.6,73,29.99,10.0,NNW,4.6,-,N/A,,Scattered Clouds,330,2013-03-20 01:55:00
10:15 PM,69.8,62.6,78,29.99,10.0,NNW,3.5,-,N/A,,Clear,330,2013-03-20 02:15:00
10:35 PM,69.8,62.6,78,29.99,10.0,NW,4.6,-,N/A,,Scattered Clouds,310,2013-03-20 02:35:00
10:55 PM,69.8,62.6,78,29.99,10.0,Calm,Calm,-,N/A,,Scattered Clouds,0,2013-03-20 02:55:00
11:15 PM,68.0,62.6,83,30.00,10.0,West,3.5,-,N/A,,Scattered Clouds,280,2013-03-20 03:15:00
11:35 PM,68.0,62.6,83,30.00,10.0,West,3.5,-,N/A,,Overcast,280,2013-03-20 03:35:00
11:55 PM,68.0,62.6,83,30.00,10.0,West,4.6,-,N/A,,Overcast,280,2013-03-20 03:55:00